TimePDT,TemperatureF,Dew PointF,Humidity,Sea Level PressureIn,VisibilityMPH,Wind Direction,Wind SpeedMPH,Gust SpeedMPH,PrecipitationIn,Events,Conditions,WindDirDegrees,DateUTC
12:56 AM,64.9,32.0,29,30.08,10.0,SSW,5.8,-,N/A,,Clear,200,2012-09-17 07:56:00
1:56 AM,62.1,32.0,32,30.09,10.0,Calm,Calm,-,N/A,,Clear,0,2012-09-17 08:56:00
2:56 AM,59.0,33.1,38,30.09,10.0,Calm,Calm,-,N/A,,Clear,0,2012-09-17 09:56:00
3:56 AM,57.9,34.0,41,30.09,10.0,Calm,Calm,-,N/A,,Clear,0,2012-09-17 10:56:00
4:56 AM,55.9,36.0,47,30.10,10.0,East,3.5,-,N/A,,Clear,100,2012-09-17 11:56:00
5:56 AM,54.0,37.0,53,30.11,10.0,SE,3.5,-,N/A,,Clear,130,2012-09-17 12:56:00
6:56 AM,53.1,37.0,55,30.14,10.0,Calm,Calm,-,N/A,,Clear,0,2012-09-17 13:56:00
7:56 AM,57.0,37.9,49,30.15,10.0,ENE,6.9,-,N/A,,Clear,70,2012-09-17 14:56:00
8:56 AM,59.0,37.9,46,30.16,10.0,NNE,3.5,-,N/A,,Clear,30,2012-09-17 15:56:00
9:34 AM,62.6,37.4,39,30.17,10.0,Calm,Calm,-,N/A,,Partly Cloudy,0,2012-09-17 16:34:00
9:56 AM,64.0,37.9,38,30.16,9.0,Calm,Calm,-,N/A,,Clear,0,2012-09-17 16:56:00
10:48 AM,68.0,39.2,35,30.16,6.0,Variable,3.5,-,N/A,,Haze,0,2012-09-17 17:48:00
10:56 AM,68.0,37.9,33,30.14,9.0,Calm,Calm,-,N/A,,Clear,0,2012-09-17 17:56:00
11:22 AM,69.8,37.4,31,30.15,7.0,NNW,4.6,-,N/A,,Partly Cloudy,340,2012-09-17 18:22:00
11:56 AM,73.0,37.9,28,30.13,10.0,Variable,3.5,-,N/A,,Clear,0,2012-09-17 18:56:00
12:56 PM,79.0,33.1,19,30.10,10.0,Calm,Calm,-,N/A,,Clear,0,2012-09-17 19:56:00
1:56 PM,82.0,34.0,18,30.08,10.0,Calm,Calm,-,N/A,,Clear,0,2012-09-17 20:56:00
2:56 PM,84.0,30.0,14,30.06,10.0,NW,4.6,-,N/A,,Clear,310,2012-09-17 21:56:00
3:56 PM,84.9,28.0,13,30.05,10.0,Variable,4.6,-,N/A,,Clear,0,2012-09-17 22:56:00
4:56 PM,84.9,26.1,12,30.04,10.0,Variable,3.5,-,N/A,,Clear,0,2012-09-17 23:56:00
5:56 PM,82.9,28.0,14,30.04,10.0,NW,4.6,-,N/A,,Clear,320,2012-09-18 00:56:00
6:56 PM,79.0,27.0,15,30.04,10.0,North,3.5,-,N/A,,Clear,350,2012-09-18 01:56:00
7:56 PM,75.9,28.9,18,30.04,10.0,Calm,Calm,-,N/A,,Clear,0,2012-09-18 02:56:00
8:56 PM,69.8,26.6,20,30.07,10.0,South,5.8,-,N/A,,Clear,170,2012-09-18 03:56:00
9:56 PM,66.9,27.0,22,30.06,10.0,South,4.6,-,N/A,,Clear,190,2012-09-18 04:56:00
10:56 PM,64.9,27.0,24,30.06,10.0,SSW,4.6,-,N/A,,Clear,200,2012-09-18 05:56:00
11:56 PM,63.0,28.0,27,30.06,10.0,Calm,Calm,-,N/A,,Clear,0,2012-09-18 06:56:00